TimeEDT,TemperatureF,Dew PointF,Humidity,Sea Level PressureIn,VisibilityMPH,Wind Direction,Wind SpeedMPH,Gust SpeedMPH,PrecipitationIn,Events,Conditions,WindDirDegrees,DateUTC
12:53 AM,42.1,27.0,55,30.59,10.0,East,4.6,-,N/A,,Clear,90,2013-04-22 04:53:00
1:53 AM,42.1,26.1,53,30.58,10.0,East,3.5,-,N/A,,Clear,80,2013-04-22 05:53:00
2:53 AM,39.9,27.0,60,30.58,10.0,Calm,Calm,-,N/A,,Clear,0,2013-04-22 06:53:00
3:53 AM,39.0,28.0,65,30.59,10.0,ESE,4.6,-,N/A,,Clear,110,2013-04-22 07:53:00
4:53 AM,39.0,30.0,70,30.58,10.0,Calm,Calm,-,N/A,,Clear,0,2013-04-22 08:53:00
5:53 AM,39.9,28.9,65,30.58,10.0,East,4.6,-,N/A,,Clear,90,2013-04-22 09:53:00
6:53 AM,35.1,30.0,82,30.59,10.0,Calm,Calm,-,N/A,,Clear,0,2013-04-22 10:53:00
7:53 AM,42.1,28.9,60,30.59,10.0,NE,4.6,-,N/A,,Clear,50,2013-04-22 11:53:00
8:53 AM,44.1,28.0,53,30.61,10.0,East,6.9,-,N/A,,Clear,100,2013-04-22 12:53:00
9:53 AM,46.9,27.0,46,30.60,10.0,ESE,8.1,-,N/A,,Clear,110,2013-04-22 13:53:00
10:53 AM,46.9,27.0,46,30.60,10.0,East,9.2,-,N/A,,Clear,90,2013-04-22 14:53:00
12:53 PM,52.0,28.9,41,30.54,10.0,ENE,9.2,-,N/A,,Clear,60,2013-04-22 16:53:00
1:53 PM,54.0,27.0,35,30.51,10.0,ESE,8.1,-,N/A,,Clear,120,2013-04-22 17:53:00
2:53 PM,55.0,28.0,35,30.49,10.0,Variable,6.9,-,N/A,,Clear,0,2013-04-22 18:53:00
3:53 PM,57.0,30.0,36,30.46,10.0,SE,9.2,-,N/A,,Clear,130,2013-04-22 19:53:00
4:53 PM,55.9,28.9,36,30.44,10.0,Variable,4.6,-,N/A,,Clear,0,2013-04-22 20:53:00
5:53 PM,55.9,30.9,39,30.43,10.0,ESE,6.9,-,N/A,,Clear,110,2013-04-22 21:53:00
6:53 PM,55.0,30.9,40,30.43,10.0,ESE,9.2,-,N/A,,Clear,110,2013-04-22 22:53:00
7:53 PM,53.1,30.9,43,30.42,10.0,SE,6.9,-,N/A,,Clear,130,2013-04-22 23:53:00
8:53 PM,50.0,33.1,52,30.45,10.0,ESE,6.9,-,N/A,,Overcast,110,2013-04-23 00:53:00
9:53 PM,48.0,33.1,56,30.46,10.0,East,4.6,-,N/A,,Overcast,90,2013-04-23 01:53:00
10:53 PM,45.0,32.0,60,30.46,10.0,ESE,8.1,-,N/A,,Clear,110,2013-04-23 02:53:00
11:53 PM,44.1,30.9,60,30.45,10.0,ESE,8.1,-,N/A,,Clear,110,2013-04-23 03:53:00